Location: Borderline Observatory
(42.7345°N, 72.8696°W)
Time: 15:05:56
(UTC-04:00)

Daily predictions for brighter satellites

Satellite Brightness Start Highest point End
(mag) Time Altitude Azimuth Time Altitude Azimuth Time Altitude Azimuth
NOSS 0 Rocket 4.1 19:02:15 10° SSW 19:08:25 84° WNW 19:14:40 10° NNE
ATLAS 5 CENTAUR R/B 3.2 19:06:10 10° SSE 19:09:25 18° ESE 19:12:48 10° ENE
Cosmos 1371 Rocket 4.0 19:04:13 10° NNW 19:09:31 74° ENE 19:14:50 10° SSE
Cosmos 1980 3.9 19:04:57 10° SSW 19:10:36 84° WNW 19:16:18 10° NNE
Helios 1A 3.9 19:07:57 10° SE 19:11:34 29° ENE 19:15:13 10° N
SL-16 R/B 2.5 19:10:33 10° S 19:15:54 44° ESE 19:21:17 10° NE
Cosmos 1953 3.7 19:16:22 10° SE 19:19:14 19° E 19:22:05 10° NE
SAR-Lupe-1 4.0 19:16:53 10° SSE 19:20:26 83° ENE 19:24:01 10° NNW
Cosmos 1464 Rocket 4.3 19:15:48 10° SSE 19:21:42 45° E 19:27:33 10° NNE
Cosmos 1812 Rocket 4.4 19:21:03 10° SSW 19:25:17 55° W 19:29:34 10° N
Aureole 2 Rocket 3.2 19:21:50 10° S 19:26:04 49° ESE 19:30:15 10° NNE
Cosmos 1624 Rocket 4.0 19:22:16 10° NNW 19:27:32 86° ENE 19:32:43 10° SSE
Cosmos 1766 Rocket 4.2 19:24:55 10° N 19:28:58 35° ENE 19:32:57 10° SE
ATLAS CENTAUR R/B 3.7 19:27:51 10° SSW 19:32:42 59° ESE 19:47:41 10° NE
Meteor 1-22 Rocket 4.0 19:29:49 10° S 19:35:10 77° E 19:40:28 10° NNE
Cosmos 1805 4.1 19:33:10 10° SSE 19:36:34 29° E 19:40:00 10° NNE
USA 215 3.2 19:31:10 10° NE 19:37:43 72° SE 19:44:13 10° SW
Cosmos 2219 Rocket 3.8 19:32:46 10° SW 19:37:57 37° WNW 19:43:11 10° N
HJ-1C 3.3 19:35:59 10° SSE 19:39:18 65° ENE 19:42:39 10° N
H-2A R/B 3.9 19:36:55 14° ESE 19:39:30 25° ENE 19:42:45 10° NNE
Cosmos 2278 Rocket 3.4 19:35:08 10° NW 19:40:30 45° WSW 19:45:50 10° S
Meteor 1-29 3.2 19:39:36 10° NNE 19:43:00 45° E 19:46:22 10° S
Timation 1 Rocket 4.3 19:38:14 10° NNW 19:44:12 71° ENE 19:50:09 10° SSE
Cosmos 2297 3.8 19:38:34 10° NNW 19:44:17 85° WSW 19:49:55 10° SSE
METEOR-M 4.1 19:39:11 10° SSE 19:44:32 85° ENE 19:49:56 10° NNW
Meteor 1-28 Rocket 3.6 19:42:08 10° N 19:45:51 67° WNW 19:49:31 10° SSW
Meteor 1-24 Rocket 3.9 19:40:16 10° NNW 19:45:57 74° W 19:51:24 10° S
Cosmos 1378 3.2 19:43:43 10° N 19:47:28 81° W 19:51:11 10° S
FENGYUN 3A 3.9 19:45:42 10° SE 19:50:51 50° ENE 19:56:03 10° N
Cosmos 1076 Rocket 3.4 19:47:15 10° N 19:51:35 76° E 19:55:55 10° SSE
SJ-6B 4.0 19:48:01 10° S 19:51:48 45° W 19:55:43 10° NNW
Cosmos 1544 3.9 19:49:46 10° SSE 19:53:01 29° E 19:56:18 10° NNE
Cosmos 1346 4.2 19:52:41 10° NNE 19:54:56 25° ENE 19:54:56 25° ENE
ERS-1 Rocket 4.4 19:54:40 18° ENE 19:55:38 19° ENE 19:59:07 10° NNE
Cosmos-2242 3.2 19:51:51 10° SSE 19:56:01 46° E 20:00:13 10° NNE
Cosmos 1452 Rocket 3.5 19:51:33 10° NNW 19:56:47 62° ENE 20:01:27 13° SSE
ATLAS 3B R/B 4.4 19:50:55 10° WSW 19:57:42 34° NW 20:04:18 10° NNE
Helios 1B rocket 2.4 19:55:30 10° NNE 19:59:38 89° W 20:03:44 10° SSW
Cosmos 1758 3.4 19:55:47 10° S 19:59:46 57° E 20:03:48 10° NNE
Cosmos 2369 Rocket 3.5 19:55:41 10° N 20:00:03 22° NE 20:01:47 20° ENE
Cosmos 192 4.3 19:56:30 10° SSW 20:01:28 81° ESE 20:06:26 10° NNE
Cosmos 1842 Rocket 4.5 20:02:21 26° E 20:02:21 26° E 20:05:47 10° NNE
SeaSat 1 3.0 19:58:13 10° NE 20:02:43 34° ESE 20:07:11 10° S
Cosmos 1603 4.1 19:57:39 10° S 20:02:58 41° ESE 20:08:20 10° NE
Cosmos 1500 Rocket 4.4 19:59:49 10° NNE 20:03:44 30° ENE 20:04:34 28° E
Cosmos 1408 Rocket 3.5 20:00:24 10° N 20:04:48 88° W 20:09:07 10° S
Resurs 01 Rocket 2.2 20:04:43 10° S 20:09:07 59° W 20:13:32 10° NNW
Cosmos 1943 Rocket 4.0 20:08:38 10° NNE 20:11:25 14° NE 20:12:21 13° NE
FengYun 1-2 T 4.3 20:06:41 10° SSE 20:12:13 80° WSW 20:17:45 10° NNW
NOSS 3-2 (A) 3.5 20:06:16 10° SW 20:12:22 83° NW 20:19:04 10° NE
Resurs 1-3 3.9 20:08:47 10° S 20:13:09 69° W 20:17:32 10° NNW
Cosmos 2333 Rocket 4.3 20:08:25 10° WSW 20:13:16 27° NW 20:18:11 10° N
CZ-4B DEB 2.8 20:15:36 27° S 20:17:15 84° WSW 20:20:33 10° NNW
Cosmos 1420 Rocket 4.1 20:15:40 10° NNW 20:20:54 56° ENE 20:23:00 34° SE
ATLAS CENTAUR R/B 3.8 20:21:12 10° WNW 20:24:11 19° WSW 20:27:02 10° SSW
Atlas Centaur 2 4.4 20:17:58 10° WSW 20:24:34 26° SSW 20:28:58 16° SSE
Meteor 1-21 Rocket 4.1 20:20:01 10° N 20:25:37 88° W 20:31:09 10° S
ALOS 2.6 20:26:16 10° S 20:30:54 67° WSW 20:35:34 10° NNW
Cosmos 1743 Rocket 3.4 20:27:05 10° N 20:31:34 85° E 20:33:29 34° S
Cosmos 1674 2.7 20:28:47 10° N 20:32:22 59° ENE 20:32:22 59° ENE
Nadezhda 4 Rocket 3.9 20:26:21 10° N 20:32:41 87° E 20:38:49 10° S
Cosmos 1269 Rocket 3.9 20:28:50 10° S 20:34:01 62° ESE 20:39:15 10° NNE
CZ-4B DEB 4.5 20:34:17 66° S 20:34:44 84° WSW 20:38:22 10° NNW
Cosmos 1092 Rocket 3.9 20:31:25 10° N 20:37:39 70° E 20:40:56 29° SSE
GP-B 3.2 20:35:14 10° N 20:39:11 54° ENE 20:39:11 54° ENE
Cosmos 1048 Rocket 3.9 20:35:43 10° S 20:40:56 61° ESE 20:46:08 10° NNE
OAO 3 Rocket 4.2 20:42:02 10° WSW 20:46:04 33° S 20:46:04 33° S
NOSS 3-2 (C) 4.0 20:43:23 10° SW 20:49:26 61° NW 20:56:06 10° NNE
Envisat 3.3 20:50:02 47° NE 20:50:02 47° NE 20:54:31 10° N
CZ-4C R/B 4.4 20:47:00 10° W 20:51:28 24° NNW 20:56:25 10° NNE
ASTEX 1 3.8 20:46:38 10° N 20:51:31 63° W 20:56:19 10° SSW
Cosmos 1634 Rocket 3.9 20:49:16 30° SSE 20:52:26 67° E 20:58:36 10° NNE
CENTAUR R/B 3.9 20:46:58 10° S 21:00:34 - NE 20:48:51 20° S
ATLAS 5 CENTAUR R/B 2.3 20:48:45 10° SW 20:53:29 60° NW 20:58:41 10° NNE
Cosmos 2026 Rocket 4.0 20:48:29 10° N 20:54:27 53° ENE 20:54:38 53° E
Cosmos 1953 4.2 20:51:54 10° SW 20:55:27 30° WNW 20:59:01 10° NNW
SL-16 R/B 4.1 20:55:14 10° WSW 21:00:10 30° NW 21:05:09 10° N
H-2A R/B 4.0 21:14:39 22° N 21:14:39 22° N 21:16:26 10° N
Cosmos 2195 Rocket 4.4 21:09:31 10° N 21:15:52 88° ENE 21:16:42 70° SSE
USA 215 4.2 21:14:23 10° NE 21:20:28 43° NNW 21:26:32 10° W
ERS-1 Rocket 3.7 21:34:40 51° WNW 21:34:40 51° WNW 21:38:56 10° NNW
SeaSat 1 3.9 21:35:45 10° N 21:40:12 35° NW 21:44:38 10° WSW
Cosmos 2369 Rocket 2.8 21:38:57 10° NNW 21:43:36 54° WNW 21:43:36 54° WNW
Cosmos 839 Rocket 4.3 21:41:53 10° NW 21:49:20 69° WSW 21:49:20 69° WSW
Cosmos 1943 Rocket 3.4 21:50:34 10° NNW 21:53:53 36° NNW 21:53:53 36° NNW
H-2A R/B 4.5 22:24:25 15° N 22:24:25 15° N 22:25:18 10° N
